OBJECT D, 63985

Orbit data source: Space-Track

You're viewing an Uncataloged Satellite

Recently launched and/or uncataloged satellites may have evolving metadata. Metadata may include but not limited to: Owner, Maufacturer, Bus, Motor, and Mission.

OBJECT D, 63985 is a Chinese satellite in SSO that was launched on Wed, 14 May 2025 UTC via a CHANG ZHENG 2D launch vehicle from the Jiuquan Satellite Launch Center, China (JSC). Unknown objects in Earth's orbit typically refer to objects detected orbiting the Earth but have not yet been identified or cataloged. These objects could be anything from previously untracked satellites, spent rocket stages, debris from satellite collisions, or even natural meteoroids temporarily captured by Earth's gravity.

Loading next visibility...
Identifier
63985, 2025-100D
Orbit
SSO
Last TLE update
9 hours ago
Origin
Flag of CNCN / PRC
Manufacturer
Unknown
Mission
Operational Commercial Technology
Bus & Motor
Unknown
Mass
Unknown
Launch date (UTC)
2025-05-14 (3 months ago)
Launch vehicle
CHANG ZHENG 2D
Launch site
Jiuquan Satellite Launch Center, China (JSC)
Object type
Unknown
Shape & HBR
Box + 2 Pan, 0.1 m
Radar Cross Section
0.135 m², Medium (>0.1 m² and < 1m²)

Expand to show TLE details & history

TLE from 9 hours ago
0 OBJECT D
1 63985U 25100D   25211.16031058  .00017697  00000-0  83476-3 0  9995
2 63985  97.4034 285.4354 0010874 358.2553   1.8642 15.19477644 11687
Epoch: 2025-07-30T03:50Z
TLE epoch observation values (Epoch: 2025-07-30T03:50:50.834Z)
Latitude
-0°
Longitude
-80.31993°
Altitude
503.023 km
Speed
7.617 km/s
True Right ascension
19h 01m 44s
True Declination
0° 00' 00"
Sunlit
Object was in full shadow at epoch
Visualization orbit readout
Latitude
-73.35844°
Longitude
74.43303°
Altitude
535.876 km
Speed
7.593 km/s
Apparent Right ascension
12h 58m 44s
Apparent Declination
-70° 44' 14"
Sunlit
Object is in daylight
Visualization observer readout
Local Sidereal Time
02:25:19
Azimuth
167.005° S
Elevation
-57.238°
Doppler factor
1
Orbital elements
Apogee altitude
511.869 km
Perigee altitude
496.901 km
Semi-major axis
6,882.522 km
Eccentricity
0.00109
Inclination
97.4034°
RAAN
285.4354°
Arg. of periapsis
358.2553°
True anomaly
1.86826°
Mean anomaly
1.8642°
Eccentric anomaly
1.86623°
Mean motion
3.80121 °/min
Orbital period
94.71 mins
BSTAR
0.00083476
Loading maneuver chart data...
Loading SW <> Apogee altitude chart data...
Loading historical data...
Loading historical data...
Loading historical data...
Loading historical data...
Loading historical data...
Loading historical data...
Loading historical data...
|